CW8398 Weather Reports


time (UTC)temp
C
wind
direction
speed
KPH
gust
KPH
rain 1hr
cm
rain 24hr
cm
rain mn
cm
humidity
%
barometer
mb
20260508043302 4 85 0.0 1.6 0.00 0.00 0.00 95 1022.3
20260508041802 3 45 0.0 3.2 0.00 0.00 0.00 96 1022.3
20260508041303 3 337 0.0 1.6 0.00 0.00 0.00 96 1022.3
20260508040802 3 334 0.0 1.6 0.00 0.00 0.00 96 1022.3
20260508040302 3 330 0.0 1.6 0.00 0.00 0.00 95 1022.3
20260508035803 3 330 0.0 1.6 0.00 0.00 0.00 95 1022.3
20260508034802 3 25 0.0 1.6 0.00 0.00 0.00 96 1022.3
20260508034302 2 5 0.0 1.6 0.00 0.00 0.00 95 1022.3
20260508033302 2 23 1.6 4.8 0.00 0.00 0.00 95 1022.3
20260508032803 2 32 0.0 0.0 0.00 0.00 0.00 95 1022.3
20260508032306 2 32 0.0 0.0 0.00 0.00 0.00 95 1022.3
20260508031802 2 32 0.0 0.0 0.00 0.00 0.00 95 1022.3
20260508031302 2 32 0.0 0.0 0.00 0.00 0.00 95 1021.8
20260508030803 2 32 0.0 0.0 0.00 0.00 0.00 95 1021.8
20260508030302 2 32 0.0 0.0 0.00 0.00 0.00 95 1021.8
20260508025803 2 32 0.0 0.0 0.00 0.00 0.00 95 1021.8
20260508025305 2 32 0.0 0.0 0.00 0.00 0.00 95 1021.8
20260508024302 2 32 0.0 0.0 0.00 0.00 0.00 95 1021.8
20260508023803 2 32 0.0 0.0 0.00 0.00 0.00 95 1021.8
20260508023303 1 32 0.0 0.0 0.00 0.00 0.00 95 1021.8
20260508022306 1 32 0.0 0.0 0.00 0.00 0.00 95 1021.5
20260508021802 1 32 0.0 0.0 0.00 0.00 0.00 94 1021.5
20260508021303 1 32 0.0 0.0 0.00 0.00 0.00 94 1021.5
20260508020802 1 32 0.0 0.0 0.00 0.00 0.00 94 1021.5
20260508015802 1 32 0.0 0.0 0.00 0.00 0.00 94 1021.5
20260508015305 1 32 0.0 0.0 0.00 0.00 0.00 94 1021.5
20260508014802 1 32 0.0 0.0 0.00 0.00 0.00 94 1021.5
20260508014303 1 32 0.0 0.0 0.00 0.00 0.00 94 1021.4
20260508013803 1 32 0.0 0.0 0.00 0.00 0.00 93 1021.4
20260508013302 1 32 0.0 0.0 0.00 0.00 0.00 94 1021.4
20260508012802 1 32 0.0 0.0 0.00 0.00 0.00 94 1021.3
20260508012307 1 32 0.0 0.0 0.00 0.00 0.00 94 1021.3
20260508011802 1 32 0.0 0.0 0.00 0.00 0.00 94 1019.7
20260508011303 1 32 0.0 0.0 0.00 0.00 0.00 93 1019.7
20260508010802 1 32 0.0 0.0 0.00 0.00 0.00 94 1019.7
20260508005803 1 32 0.0 0.0 0.00 0.00 0.00 93 1019.7
20260508005305 1 32 0.0 0.0 0.00 0.00 0.00 93 1019.7
20260508004803 1 32 0.0 0.0 0.00 0.00 0.00 93 1019.7
20260508004303 1 32 0.0 0.0 0.00 0.00 0.00 93 1019.7
20260508003803 1 32 0.0 0.0 0.00 0.00 0.00 93 1019.7
20260508003302 1 32 0.0 0.0 0.00 0.00 0.00 92 1019.7
20260508002803 1 32 0.0 0.0 0.00 0.00 0.00 92 1019.7
20260508002306 1 32 0.0 0.0 0.00 0.00 0.00 92 1019.7
20260508001803 1 32 0.0 0.0 0.00 0.00 0.00 92 1019.7
20260508001302 1 32 0.0 0.0 0.00 0.00 0.00 92 1019.7
20260508000803 1 32 0.0 0.0 0.00 0.00 0.00 92 1019.7
20260508000305 1 32 0.0 0.0 0.00 0.00 0.00 91 1019.7
20260507235803 1 32 0.0 0.0 0.00 0.00 0.00 90 1019.7
20260507234803 1 32 0.0 0.0 0.00 0.00 0.00 91 1019.7
20260507233803 1 32 0.0 0.0 0.00 0.00 0.00 90 1019.7
20260507233303 1 32 0.0 0.0 0.00 0.00 0.00 88 1019.7
20260507232803 2 32 0.0 0.0 0.00 0.00 0.00 89 1019.7
20260507232306 2 32 0.0 0.0 0.00 0.00 0.00 90 1019.7
20260507231803 1 32 0.0 0.0 0.00 0.00 0.00 89 1019.7
20260507231302 1 32 0.0 0.0 0.00 0.00 0.00 86 1019.7
20260507230802 1 32 0.0 0.0 0.00 0.00 0.00 85 1019.7
20260507230302 1 32 0.0 0.0 0.00 0.00 0.00 84 1019.7
20260507225803 1 32 0.0 0.0 0.00 0.00 0.00 83 1019.7
20260507225305 1 32 0.0 0.0 0.00 0.00 0.00 83 1019.0
20260507224803 1 32 0.0 0.0 0.00 0.00 0.00 83 1019.0
20260507224303 1 32 0.0 0.0 0.00 0.00 0.00 84 1019.0
20260507223803 1 32 0.0 0.0 0.00 0.00 0.00 85 1019.0
20260507223303 1 32 0.0 0.0 0.00 0.00 0.00 86 1019.0
20260507221303 1 32 0.0 0.0 0.00 0.00 0.00 85 1019.0
20260507220816 1 32 0.0 1.6 0.00 0.00 0.00 86 1019.0
20260507220303 1 32 0.0 0.0 0.00 0.00 0.00 86 1019.0
20260507215803 1 32 0.0 0.0 0.00 0.00 0.00 87 1019.0
20260507215306 2 32 0.0 0.0 0.00 0.00 0.00 87 1019.0
20260507214802 2 32 0.0 0.0 0.00 0.00 0.00 88 1019.0
20260507214303 2 32 0.0 0.0 0.00 0.00 0.00 88 1019.0
20260507213803 2 32 0.0 0.0 0.00 0.00 0.00 86 1019.0
20260507213303 2 32 0.0 0.0 0.00 0.00 0.00 86 1019.0
20260507212306 2 32 1.6 1.6 0.00 0.00 0.00 84 1019.0
20260507211803 2 32 1.6 1.6 0.00 0.00 0.00 84 1019.0
20260507211303 2 32 1.6 1.6 0.00 0.00 0.00 84 1019.0
20260507210803 2 32 1.6 1.6 0.00 0.00 0.00 84 1018.9
20260507210303 2 32 0.0 1.6 0.00 0.00 0.00 84 1018.8
20260507205802 2 32 0.0 0.0 0.00 0.00 0.00 84 1018.8
20260507205306 2 32 0.0 0.0 0.00 0.00 0.00 84 1018.8
20260507204803 2 32 0.0 0.0 0.00 0.00 0.00 82 1018.7
20260507204302 2 32 0.0 0.0 0.00 0.00 0.00 81 1018.7
20260507203803 2 32 0.0 0.0 0.00 0.00 0.00 81 1018.5
20260507203303 2 32 0.0 0.0 0.00 0.00 0.00 81 1018.5
20260507202802 2 32 0.0 0.0 0.00 0.00 0.00 81 1018.5
20260507201803 3 32 0.0 0.0 0.00 0.00 0.00 79 1018.4
20260507201303 3 32 0.0 0.0 0.00 0.00 0.00 78 1018.4
20260507200803 3 32 0.0 0.0 0.00 0.00 0.00 77 1018.3
20260507200303 3 32 0.0 0.0 0.00 0.00 0.00 77 1018.3
20260507195802 3 32 0.0 0.0 0.00 0.00 0.00 76 1018.2
20260507195305 3 32 0.0 0.0 0.00 0.00 0.00 76 1018.0
20260507194803 3 32 0.0 0.0 0.00 0.00 0.00 76 1018.0
20260507194303 3 32 0.0 0.0 0.00 0.00 0.00 75 1018.0
20260507193804 3 32 0.0 0.0 0.00 0.00 0.00 74 1018.0
20260507193303 4 32 0.0 0.0 0.00 0.00 0.00 74 1018.0
20260507192803 4 32 0.0 0.0 0.00 0.00 0.00 73 1016.8
20260507192306 4 32 0.0 0.0 0.00 0.00 0.00 72 1016.8
20260507191803 5 32 0.0 0.0 0.00 0.00 0.00 72 1016.8
20260507191303 5 32 0.0 0.0 0.00 0.00 0.00 71 1016.8
20260507190802 5 32 0.0 0.0 0.00 0.00 0.00 70 1016.8
20260507185803 5 32 0.0 0.0 0.00 0.00 0.00 68 1016.8
20260507185305 5 32 0.0 1.6 0.00 0.00 0.00 67 1016.8
20260507184803 5 32 0.0 1.6 0.00 0.00 0.00 66 1016.8
20260507184302 6 32 0.0 1.6 0.00 0.00 0.00 65 1016.8
20260507183802 6 32 1.6 1.6 0.00 0.00 0.00 65 1016.8
20260507182803 6 32 0.0 0.0 0.00 0.00 0.00 62 1016.8
20260507182306 7 32 0.0 0.0 0.00 0.00 0.00 60 1016.8
20260507181803 7 32 0.0 0.0 0.00 0.00 0.00 58 1016.8
20260507180803 7 32 0.0 1.6 0.00 0.00 0.00 56 1016.8
20260507180303 8 32 0.0 1.6 0.00 0.00 0.00 55 1016.8
20260507175802 8 36 1.6 4.8 0.00 0.00 0.00 54 1016.8
20260507175306 8 127 0.0 1.6 0.00 0.00 0.00 54 1016.8
20260507174803 8 127 0.0 1.6 0.00 0.00 0.00 52 1016.5
20260507174303 8 119 0.0 1.6 0.00 0.00 0.00 51 1016.5
20260507173803 8 43 0.0 3.2 0.00 0.00 0.00 51 1016.5
20260507173303 8 47 1.6 3.2 0.00 0.00 0.00 50 1016.5
20260507172803 8 14 1.6 3.2 0.00 0.00 0.00 50 1016.5
20260507172307 9 137 0.0 1.6 0.00 0.00 0.00 49 1016.5
20260507171303 9 150 1.6 3.2 0.00 0.00 0.00 46 1016.3
20260507170803 9 119 0.0 3.2 0.00 0.00 0.00 45 1016.3
20260507170303 10 90 1.6 4.8 0.00 0.00 0.00 45 1016.3
20260507165803 10 110 1.6 3.2 0.00 0.00 0.00 44 1016.3
20260507165306 10 207 1.6 8.0 0.00 0.00 0.00 43 1016.3
20260507164803 10 349 1.6 4.8 0.00 0.00 0.00 42 1016.1
20260507164303 10 12 1.6 4.8 0.00 0.00 0.00 40 1016.1
20260507163803 10 182 1.6 4.8 0.00 0.00 0.00 41 1016.1
20260507163303 10 19 1.6 9.7 0.00 0.00 0.00 40 1014.8
20260507162802 10 41 1.6 4.8 0.00 0.00 0.00 41 1014.8
20260507162306 10 213 1.6 4.8 0.00 0.00 0.00 40 1014.8
20260507161303 10 170 3.2 8.0 0.00 0.00 0.00 40 1014.8
20260507160802 11 183 1.6 4.8 0.00 0.00 0.00 42 1014.8
20260507160303 11 189 1.6 4.8 0.00 0.00 0.00 42 1014.8
20260507155803 11 16 1.6 12.9 0.00 0.00 0.00 42 1014.8
20260507155306 11 143 1.6 8.0 0.00 0.00 0.00 43 1014.8
20260507154803 11 142 3.2 8.0 0.00 0.00 0.00 43 1014.8
20260507154303 11 69 3.2 8.0 0.00 0.00 0.00 45 1014.8
20260507153803 11 209 1.6 8.0 0.00 0.00 0.00 44 1014.8
20260507153303 11 319 1.6 4.8 0.00 0.00 0.00 42 1014.8
20260507152803 11 157 3.2 4.8 0.00 0.00 0.00 40 1014.8
20260507152306 11 148 3.2 9.7 0.00 0.00 0.00 40 1014.8
20260507151803 11 60 1.6 8.0 0.00 0.00 0.00 38 1014.8
20260507151303 11 272 1.6 9.7 0.00 0.00 0.00 38 1014.8
20260507150803 11 130 3.2 8.0 0.00 0.00 0.00 35 1014.8
20260507150303 11 325 1.6 9.7 0.00 0.00 0.00 35 1014.8
20260507145803 11 119 1.6 11.3 0.00 0.00 0.00 35 1014.8
20260507145306 11 157 3.2 12.9 0.00 0.00 0.00 35 1014.8
20260507144803 11 197 3.2 9.7 0.00 0.00 0.00 35 1014.8
20260507144303 11 193 4.8 16.1 0.00 0.00 0.00 34 1014.8
20260507143303 11 187 3.2 8.0 0.00 0.00 0.00 36 1014.8
20260507142803 11 199 4.8 11.3 0.00 0.00 0.00 32 1014.8
20260507142306 11 168 3.2 9.7 0.00 0.00 0.00 32 1014.8
20260507141803 11 192 3.2 8.0 0.00 0.00 0.00 32 1014.8
20260507141303 11 287 3.2 8.0 0.00 0.00 0.00 32 1014.8
20260507140803 11 121 3.2 8.0 0.00 0.00 0.00 33 1014.8
20260507140303 12 69 3.2 8.0 0.00 0.00 0.00 34 1014.8
20260507135804 12 198 3.2 8.0 0.00 0.00 0.00 36 1014.8
20260507135306 11 55 4.8 9.7 0.00 0.00 0.00 34 1014.8
20260507134802 12 72 3.2 9.7 0.00 0.00 0.00 35 1014.8
20260507134303 12 137 3.2 9.7 0.00 0.00 0.00 36 1014.8
20260507133803 12 150 3.2 9.7 0.00 0.00 0.00 34 1014.8
20260507133303 12 125 3.2 9.7 0.00 0.00 0.00 34 1014.8
20260507132803 12 121 3.2 8.0 0.00 0.00 0.00 34 1014.8
20260507132307 12 202 4.8 12.9 0.00 0.00 0.00 32 1014.8
20260507131803 12 68 3.2 11.3 0.00 0.00 0.00 33 1014.8
20260507131303 12 3 4.8 12.9 0.00 0.00 0.00 34 1014.8
20260507130303 12 25 6.4 12.9 0.00 0.00 0.00 34 1014.8
20260507125803 12 51 3.2 11.3 0.00 0.00 0.00 32 1014.8
20260507125306 12 45 4.8 11.3 0.00 0.00 0.00 30 1014.8
20260507124803 12 354 3.2 4.8 0.00 0.00 0.00 30 1014.6
20260507124303 12 80 3.2 11.3 0.00 0.00 0.00 30 1014.6
20260507123803 12 24 3.2 9.7 0.00 0.00 0.00 28 1014.6
20260507123303 12 81 4.8 11.3 0.00 0.00 0.00 27 1014.6
20260507122803 12 55 3.2 14.5 0.00 0.00 0.00 28 1014.6
20260507122306 12 13 4.8 14.5 0.00 0.00 0.00 27 1014.6
20260507121803 12 85 3.2 4.8 0.00 0.00 0.00 27 1014.6
20260507121303 12 50 4.8 9.7 0.00 0.00 0.00 28 1014.6
20260507120803 11 358 6.4 16.1 0.00 0.00 0.00 27 1014.6
20260507120303 12 2 4.8 12.9 0.00 0.00 0.00 28 1014.6
20260507115803 12 29 4.8 12.9 0.00 0.00 0.00 25 1014.6
20260507115306 12 11 3.2 12.9 0.00 0.00 0.00 27 1014.6
20260507114803 12 350 4.8 9.7 0.00 0.00 0.00 27 1014.4
20260507114303 12 358 4.8 9.7 0.00 0.00 0.00 27 1014.4
20260507113803 12 342 6.4 16.1 0.00 0.00 0.00 27 1014.4
20260507112803 12 321 3.2 8.0 0.00 0.00 0.00 27 1014.4
20260507112306 12 15 3.2 8.0 0.00 0.00 0.00 30 1014.4
20260507111803 12 357 4.8 9.7 0.00 0.00 0.00 29 1014.4
20260507111303 12 20 3.2 9.7 0.00 0.00 0.00 29 1014.4
20260507110803 12 66 4.8 16.1 0.00 0.00 0.00 28 1014.4
20260507110303 12 5 3.2 4.8 0.00 0.00 0.00 27 1014.4
20260507105306 12 338 1.6 12.9 0.00 0.00 0.00 28 1014.0
20260507104303 11 39 6.4 14.5 0.00 0.00 0.00 25 1014.0
20260507103803 11 347 6.4 16.1 0.00 0.00 0.00 25 1014.0
20260507103303 12 293 3.2 9.7 0.00 0.00 0.00 26 1014.0
20260507102803 12 327 1.6 16.1 0.00 0.00 0.00 29 1014.0
20260507102306 11 26 1.6 8.0 0.00 0.00 0.00 29 1014.0
20260507101803 11 52 1.6 8.0 0.00 0.00 0.00 27 1014.0
20260507100803 11 15 4.8 9.7 0.00 0.00 0.00 33 1014.0
20260507100303 11 79 3.2 8.0 0.00 0.00 0.00 30 1014.0
20260507095803 11 14 4.8 8.0 0.00 0.00 0.00 30 1014.0
20260507095305 11 155 3.2 8.0 0.00 0.00 0.00 31 1014.0
20260507094804 11 9 8.0 19.3 0.00 0.00 0.00 33 1014.0
20260507094303 12 69 3.2 12.9 0.00 0.00 0.00 34 1014.0
20260507093804 11 85 1.6 4.8 0.00 0.00 0.00 34 1014.0
20260507093304 11 188 6.4 14.5 0.00 0.00 0.00 33 1014.0
20260507092803 11 47 4.8 14.5 0.00 0.00 0.00 34 1014.0
20260507092306 11 176 3.2 12.9 0.00 0.00 0.00 35 1013.8
20260507091803 11 15 6.4 12.9 0.00 0.00 0.00 35 1013.8
20260507090303 11 339 3.2 9.7 0.00 0.00 0.00 37 1013.8
20260507085306 10 39 3.2 8.0 0.00 0.00 0.00 38 1013.8
20260507084303 11 34 3.2 4.8 0.00 0.00 0.00 38 1013.8
20260507083803 10 15 1.6 12.9 0.00 0.00 0.00 38 1013.8
20260507083303 10 352 3.2 4.8 0.00 0.00 0.00 39 1013.8
20260507082803 10 108 3.2 8.0 0.00 0.00 0.00 40 1013.6
20260507082306 10 355 3.2 4.8 0.00 0.00 0.00 41 1013.6
20260507081803 10 9 3.2 9.7 0.00 0.00 0.00 40 1013.6
20260507081303 10 216 1.6 4.8 0.00 0.00 0.00 33 1013.6
20260507080303 10 182 4.8 11.3 0.00 0.00 0.00 34 1013.6
20260507075803 10 293 1.6 14.5 0.00 0.00 0.00 39 1013.6
20260507075306 9 176 0.0 14.5 0.00 0.00 0.00 39 1013.6
20260507074803 9 359 1.6 8.0 0.00 0.00 0.00 39 1013.6
20260507074303 9 59 3.2 8.0 0.00 0.00 0.00 39 1013.6
20260507073803 9 33 1.6 8.0 0.00 0.00 0.00 44 1013.6
20260507072803 8 21 1.6 4.8 0.00 0.00 0.00 48 1013.6
20260507072306 8 334 1.6 4.8 0.00 0.00 0.00 47 1013.6
20260507071803 8 62 3.2 4.8 0.00 0.00 0.00 50 1013.6
20260507071303 8 292 3.2 4.8 0.00 0.00 0.00 51 1013.6
20260507070803 8 56 1.6 4.8 0.00 0.00 0.00 50 1013.6
20260507070304 8 13 3.2 4.8 0.00 0.00 0.00 49 1013.6
20260507065803 8 32 3.2 9.7 0.00 0.00 0.00 47 1013.6
20260507064803 8 251 1.6 4.8 0.00 0.00 0.00 48 1013.5
20260507064303 8 39 1.6 4.8 0.00 0.00 0.00 50 1013.5
20260507063803 8 125 1.6 8.0 0.00 0.00 0.00 54 1013.5
20260507063303 7 41 1.6 4.8 0.00 0.00 0.00 55 1013.5
20260507062803 7 143 1.6 4.8 0.00 0.00 0.00 60 1013.5
20260507061804 7 309 1.6 4.8 0.00 0.00 0.00 66 1013.4
20260507061303 7 45 1.6 4.8 0.00 0.00 0.00 61 1013.4
20260507060804 7 161 0.0 3.2 0.00 0.00 0.00 60 1013.4
20260507060303 6 171 1.6 4.8 0.00 0.00 0.00 62 1013.3
20260507055804 6 209 1.6 3.2 0.00 0.00 0.00 64 1013.3
20260507055306 6 164 1.6 4.8 0.00 0.00 0.00 63 1013.3
20260507054803 6 181 0.0 4.8 0.00 0.00 0.00 71 1013.3
20260507054303 6 173 0.0 1.6 0.00 0.00 0.00 73 1013.3
20260507053804 5 173 1.6 3.2 0.00 0.00 0.00 73 1013.3
20260507053303 5 173 0.0 0.0 0.00 0.00 0.00 81 1013.3
20260507052803 5 173 0.0 0.0 0.00 0.00 0.00 83 1013.3
20260507052306 5 173 0.0 0.0 0.00 0.00 0.00 82 1013.3
20260507051804 5 173 0.0 0.0 0.00 0.00 0.00 85 1013.3
20260507051303 4 173 0.0 0.0 0.00 0.00 0.00 88 1013.3
20260507050304 3 173 0.0 0.0 0.00 0.00 0.00 94 1013.3
20260507045803 3 173 0.0 0.0 0.00 0.00 0.00 95 1013.3
20260507044803 3 173 0.0 0.0 0.00 0.00 0.00 96 1013.3
20260507044304 3 173 0.0 0.0 0.00 0.00 0.00 96 1013.1